Waarnemingen

Advertentie
Mijn weer
Lahr, Duitsland (10805): temperatuur & dauwpunt: 22.05.2018 12:00:00 - 28.05.2018 12:00:00 (CEST)Lahr, Duitsland (10805): temperatuur 5cm & temperatuur -5cm: 22.05.2018 12:00:00 - 28.05.2018 12:00:00 (CEST)Lahr, Duitsland (10805): temperatuur -20cm & temperatuur -100cm: 22.05.2018 12:00:00 - 28.05.2018 12:00:00 (CEST)Lahr, Duitsland (10805): windsnelheid & windstoten: 22.05.2018 12:00:00 - 28.05.2018 12:00:00 (CEST)Lahr, Duitsland (10805): windrichting: 22.05.2018 12:00:00 - 28.05.2018 12:00:00 (CEST)Lahr, Duitsland (10805): luchtdruk: 22.05.2018 12:00:00 - 28.05.2018 12:00:00 (CEST)Lahr, Duitsland (10805): zicht: 22.05.2018 12:00:00 - 28.05.2018 12:00:00 (CEST)Lahr, Duitsland (10805): Zonneschijnduur: 22.05.2018 12:00:00 - 28.05.2018 12:00:00 (CEST)Lahr, Duitsland (10805): neerslag: 22.05.2018 12:00:00 - 28.05.2018 12:00:00 (CEST)
Datum & Tijd tt [°C] td [°C] tt 5cm [°C] tt -5cm [°C] tt -20cm [°C] tt -100cm [°C] ff [km/u] ff [kn] fx [km/u] fx [kn] dd ppp [hPa] vv [km] sd [min] rr [mm]
28.05.2018 12:00:00 - - - - - - - - - - - - - - -
28.05.2018 11:00:00 22,9 18,0 26,9 26,5 19,8 15,9 6 3 10 5 WNW 1016,2 11 57 0,0
28.05.2018 10:00:00 21,4 17,7 24,0 23,6 19,6 15,9 6 4 14 8 ZZW 1016,9 15 27 0,0
28.05.2018 09:00:00 20,9 17,2 21,7 21,2 19,5 15,9 3 1 9 5 ZO 1016,9 17 36 0,0
28.05.2018 08:00:00 19,4 17,7 20,9 19,3 19,6 15,9 8 4 14 8 W 1016,3 10 60 0,0
28.05.2018 07:00:00 18,0 17,2 18,2 18,1 19,8 15,9 8 4 9 5 W 1015,9 13 28 0,0
28.05.2018 06:00:00 16,9 16,4 16,2 18,0 20,0 15,8 9 5 13 7 N 1015,4 14 0 0,0
28.05.2018 05:00:00 17,7 16,7 16,7 18,5 20,3 15,8 6 4 11 6 ZZO 1016,4 22 0 1,4
28.05.2018 04:00:00 17,8 17,0 17,3 18,9 20,5 15,8 4 2 11 6 Z 1017,2 3,4 0 3,5
28.05.2018 03:00:00 17,9 17,0 17,2 19,2 20,8 15,8 3 2 34 18 N 1017,6 1,6 0 1,8
28.05.2018 02:00:00 19,6 17,0 18,6 19,5 21,0 15,8 11 6 29 15 ZZW 1016,8 23 0 0,0
28.05.2018 01:00:00 18,7 16,6 16,5 19,8 21,3 15,8 5 3 6 4 W 1016,2 25 0 0,0
28.05.2018 00:00:00 19,8 16,9 18,0 20,7 21,6 15,8 4 2 7 4 NO 1016,0 28 0 0,0
27.05.2018 23:00:00 19,7 17,4 18,7 21,2 21,8 15,8 0 0 8 5 N 1016,4 31 0 0,0
27.05.2018 22:00:00 20,4 17,6 18,7 22,1 22,1 15,8 5 3 9 5 O 1015,7 31 0 0,0
27.05.2018 21:00:00 23,5 17,4 21,0 23,4 22,2 15,8 4 2 9 5 ONO 1015,3 38 1 0,0
27.05.2018 20:00:00 24,2 17,7 23,3 24,6 22,3 15,7 8 4 13 7 NNO 1014,9 44 1 0,0
27.05.2018 19:00:00 26,1 17,3 26,7 25,6 22,4 15,7 8 4 11 6 NO 1014,9 50 20 0,0
27.05.2018 18:00:00 24,9 16,4 24,4 25,8 22,5 15,7 11 6 17 9 N 1015,3 50 0 0,0
27.05.2018 17:00:00 25,7 15,7 26,0 26,6 22,4 15,7 12 6 17 9 N 1015,9 48 0 0,0
27.05.2018 16:00:00 26,7 16,4 27,1 28,8 22,0 15,7 6 4 19 10 N 1016,4 39 14 0,0
27.05.2018 15:00:00 28,0 15,9 32,2 31,7 21,4 15,7 8 5 19 10 NNO 1016,7 35 57 0,0
27.05.2018 14:00:00 27,8 17,1 31,8 31,5 20,7 15,7 10 5 15 8 N 1016,8 30 60 0,0
27.05.2018 13:00:00 26,7 16,4 31,6 29,6 20,1 15,7 5 3 16 9 NW 1017,3 32 60 0,0
27.05.2018 12:00:00 26,1 16,8 31,1 27,3 19,6 15,7 5 3 16 9 - 1018,0 10 60 0,0
27.05.2018 11:00:00 24,1 16,1 27,0 23,7 19,4 15,6 10 5 18 10 Z 1018,2 27 38 0,0
27.05.2018 10:00:00 21,6 16,5 23,2 21,2 19,3 15,6 10 5 19 10 ZZW 1018,4 21 7 0,0
27.05.2018 09:00:00 20,4 16,7 21,5 20,1 19,3 15,6 13 7 19 10 ZZW 1018,4 14 16 0,0
27.05.2018 08:00:00 19,7 16,4 21,2 19,1 19,4 15,6 3 2 8 5 NNW 1017,6 13 58 0,0
27.05.2018 07:00:00 17,7 16,3 17,7 17,6 19,6 15,6 6 3 11 6 NNW 1017,1 10 6 0,0
27.05.2018 06:00:00 16,5 15,4 15,0 17,5 19,9 15,6 9 5 11 6 W 1017,0 14 0 0,0
27.05.2018 05:00:00 17,3 15,3 15,2 18,0 20,1 15,6 4 2 11 6 WZW 1016,8 23 0 0,0
27.05.2018 04:00:00 19,6 16,1 17,4 18,6 20,4 15,6 8 4 21 11 ZZW 1017,0 21 0 0,0
27.05.2018 03:00:00 21,5 14,9 19,4 19,0 20,6 15,6 12 7 19 10 ZZO 1017,2 40 0 0,0
27.05.2018 02:00:00 21,3 14,9 19,1 19,5 20,9 15,5 9 5 24 13 W 1017,5 39 0 0,0
27.05.2018 01:00:00 23,0 14,6 21,1 20,0 21,2 15,5 16 9 26 14 OZO 1017,8 49 0 0,0
27.05.2018 00:00:00 21,6 16,4 20,0 20,7 21,5 15,5 8 4 18 10 O 1018,5 33 0 0,0
26.05.2018 23:00:00 20,8 18,0 18,2 21,4 21,7 15,5 2 1 7 4 N 1018,9 22 0 0,0
26.05.2018 22:00:00 21,7 18,6 19,4 22,5 21,9 15,5 6 3 8 4 ONO 1018,6 24 0 0,0
26.05.2018 21:00:00 23,9 18,2 21,2 24,0 22,0 15,5 5 3 10 5 N 1018,0 40 15 0,0
26.05.2018 20:00:00 26,0 16,9 24,7 25,5 22,0 15,5 7 4 12 7 NNO 1017,5 45 60 0,0
26.05.2018 19:00:00 27,2 15,5 27,2 27,4 21,9 15,5 8 5 15 8 N 1017,5 42 48 0,0
26.05.2018 18:00:00 28,7 14,0 30,2 28,3 21,7 15,5 5 3 9 5 WNW 1017,7 43 43 0,0
26.05.2018 17:00:00 27,5 16,5 28,6 26,9 21,5 15,4 6 4 13 7 ZZW 1018,0 37 0 0,0
26.05.2018 16:00:00 27,2 15,8 28,2 27,8 21,2 15,4 4 2 8 4 W 1018,3 44 8 0,0
26.05.2018 15:00:00 27,0 16,4 28,6 28,9 20,6 15,4 8 4 19 10 N 1018,1 10 45 0,0
26.05.2018 14:00:00 26,8 18,2 30,0 29,1 20,1 15,4 11 6 19 10 N 1018,4 28 58 0,0
26.05.2018 13:00:00 26,0 18,2 29,1 28,1 19,5 15,4 8 4 17 9 NW 1018,2 10 60 0,0
26.05.2018 12:00:00 24,2 17,0 27,4 26,0 19,0 15,4 8 5 16 9 NNO 1018,3 26 60 0,0
26.05.2018 11:00:00 22,0 16,4 24,6 23,7 18,6 15,4 9 5 14 8 NNO 1018,5 10 60 0,0
26.05.2018 10:00:00 20,4 15,0 24,1 21,5 18,4 15,3 6 4 12 6 N 1018,4 13 60 0,0
26.05.2018 09:00:00 18,8 15,8 20,7 19,4 18,4 15,3 6 4 9 5 N 1018,5 9 60 0,0
26.05.2018 08:00:00 16,9 14,5 16,9 16,9 18,5 15,3 5 3 8 5 NNO 1018,3 9 40 0,0
26.05.2018 07:00:00 15,5 14,7 14,7 15,6 18,8 15,3 3 1 5 3 ZZO 1018,3 6 7 0,0
26.05.2018 06:00:00 14,3 13,8 12,4 15,5 19,2 15,3 6 4 9 5 ONO 1017,6 5 0 0,0
26.05.2018 05:00:00 14,4 13,8 13,0 15,9 19,6 15,3 4 2 6 3 NNO 1017,5 3,9 0 0,0
26.05.2018 04:00:00 15,7 14,6 12,8 16,5 19,9 15,3 3 1 7 4 O 1017,2 8 0 0,0
26.05.2018 03:00:00 16,3 14,8 13,8 17,2 20,3 15,3 4 2 7 4 W 1017,1 9 0 0,0
26.05.2018 02:00:00 17,5 15,0 14,8 17,8 20,7 15,2 4 2 13 7 W 1017,2 17 0 0,0
26.05.2018 01:00:00 18,0 14,5 15,7 18,3 21,1 15,2 5 3 10 6 WNW 1017,2 21 0 0,0
26.05.2018 00:00:00 18,5 14,5 15,9 19,1 21,5 15,2 4 2 9 5 WNW 1016,9 34 0 0,0
25.05.2018 23:00:00 18,6 15,5 16,1 20,0 22,0 15,2 3 2 10 5 ONO 1016,7 30 0 0,0
25.05.2018 22:00:00 19,7 15,0 16,7 21,1 22,3 15,2 6 3 9 5 NNO 1016,7 43 0 0,0
25.05.2018 21:00:00 21,4 13,8 19,1 22,5 22,6 15,2 9 5 16 8 N 1016,3 50 39 0,0
25.05.2018 20:00:00 24,0 13,5 22,7 23,9 22,8 15,2 11 6 19 11 NNO 1015,8 70 60 0,0
25.05.2018 19:00:00 25,3 13,4 24,5 26,1 22,7 15,2 13 7 19 10 NNO 1015,6 54 60 0,0
25.05.2018 18:00:00 25,9 12,9 26,2 27,9 22,5 15,2 13 7 21 11 N 1016,0 61 60 0,0
25.05.2018 17:00:00 25,9 13,0 26,6 29,0 22,2 15,2 13 7 25 13 NNO 1016,1 45 60 0,0
25.05.2018 16:00:00 25,4 13,7 27,4 29,8 21,7 15,1 12 7 19 10 N 1016,5 45 60 0,0
25.05.2018 15:00:00 24,9 14,8 27,1 29,9 21,0 15,1 11 6 22 12 N 1016,9 10 60 0,0
25.05.2018 14:00:00 24,2 14,7 26,9 29,8 20,3 15,1 11 6 21 11 N 1017,0 32 60 0,0
25.05.2018 13:00:00 23,6 15,7 26,2 29,4 19,5 15,1 10 5 17 9 N 1017,5 31 60 0,0
25.05.2018 12:00:00 22,9 16,9 25,6 27,6 18,8 15,1 10 5 16 8 NNO 1017,9 15 60 0,0
25.05.2018 11:00:00 21,2 15,0 23,9 25,8 18,1 15,1 4 2 9 5 - 1018,0 10 60 0,0
25.05.2018 10:00:00 19,6 15,3 22,7 22,7 17,7 15,1 4 2 8 4 NW 1018,3 12 60 0,0
25.05.2018 09:00:00 18,6 15,7 19,8 19,7 17,6 15,1 5 3 8 4 ONO 1018,1 13 60 0,0
25.05.2018 08:00:00 17,7 14,6 17,5 16,8 17,7 15,1 3 2 4 2 N 1017,9 12 60 0,0
25.05.2018 07:00:00 15,3 14,3 14,6 14,9 18,1 15,0 7 4 9 5 ZO 1017,8 9 42 0,0
25.05.2018 06:00:00 12,9 12,6 10,8 14,7 18,4 15,0 0 0 7 4 N 1017,8 10 0 0,0
25.05.2018 05:00:00 14,3 13,7 12,1 15,2 18,8 15,0 5 3 9 5 Z 1017,6 23 0 0,0
25.05.2018 04:00:00 13,7 13,7 12,6 15,7 19,1 15,0 0 0 9 5 N 1017,8 2,1 0 0,0
25.05.2018 03:00:00 14,4 14,4 12,3 16,3 19,5 15,0 3 2 5 3 WNW 1017,9 0,8 0 0,0
25.05.2018 02:00:00 14,7 14,7 13,5 17,1 19,9 15,0 3 2 8 4 NW 1017,8 1,4 0 0,0
25.05.2018 01:00:00 16,1 16,1 14,8 17,8 20,3 15,0 4 2 6 4 Z 1017,7 1,4 0 0,0
25.05.2018 00:00:00 16,9 16,4 14,9 18,7 20,7 15,0 5 3 11 6 O 1017,7 4,1 0 0,0
24.05.2018 23:00:00 18,0 16,8 17,0 19,7 21,0 15,0 13 7 18 10 NNW 1017,4 8 0 3,1
24.05.2018 22:00:00 18,8 16,2 17,9 20,5 21,4 15,0 4 2 11 6 ONO 1016,7 15 0 0,0
24.05.2018 21:00:00 19,4 15,8 18,5 21,3 21,6 15,0 11 6 22 12 N 1016,2 21 7 0,0
24.05.2018 20:00:00 21,3 16,6 20,7 22,9 21,8 15,0 10 5 22 12 N 1015,5 31 10 0,0
24.05.2018 19:00:00 23,2 14,4 23,1 25,4 21,8 14,9 13 7 23 12 N 1015,0 46 33 0,0
24.05.2018 18:00:00 22,9 13,7 22,3 26,6 21,5 14,9 6 3 16 9 NW 1015,2 58 24 0,0
24.05.2018 17:00:00 24,9 13,5 26,2 29,6 20,9 14,9 6 3 16 8 WZW 1015,2 44 57 0,0
24.05.2018 16:00:00 24,5 13,5 26,2 29,9 20,2 14,9 4 2 17 9 ZW 1015,5 41 53 0,0
24.05.2018 15:00:00 23,8 15,4 27,8 29,5 19,5 14,9 8 4 19 10 W 1016,2 43 60 0,0
24.05.2018 14:00:00 23,0 15,0 26,0 28,2 18,7 14,9 7 4 16 9 WZW 1016,9 22 48 0,0
24.05.2018 13:00:00 21,8 16,0 24,8 26,1 18,1 14,9 10 5 21 12 Z 1017,5 14 60 0,0
24.05.2018 12:00:00 19,7 15,8 22,0 22,5 17,8 14,9 10 6 16 9 ZZW 1018,2 10 29 0,0
24.05.2018 11:00:00 18,2 15,9 18,6 20,1 17,6 14,9 8 4 12 7 ZZW 1018,5 10 0 0,3
24.05.2018 10:00:00 17,0 15,4 17,2 18,9 17,6 14,9 5 3 8 4 WZW 1018,8 13 0 0,1
24.05.2018 09:00:00 17,2 15,0 16,7 18,4 17,5 14,9 5 3 5 3 ZW 1018,6 10 4 0,0
24.05.2018 08:00:00 17,1 14,9 16,5 17,2 17,6 14,9 3 1 5 3 N 1018,2 19 5 0,0
24.05.2018 07:00:00 15,2 14,9 14,4 16,3 17,8 14,9 2 1 6 3 NNO 1018,1 3,4 0 0,0
24.05.2018 06:00:00 15,2 15,0 14,4 16,4 18,0 14,9 3 2 7 4 ZO 1017,8 2,4 0 0,0
24.05.2018 05:00:00 15,5 15,3 15,0 16,6 18,2 14,8 4 2 8 4 O 1018,0 4,0 0 0,4
24.05.2018 04:00:00 15,7 15,4 15,3 17,0 18,4 14,8 6 4 11 6 WZW 1017,9 4,9 0 0,1
24.05.2018 03:00:00 16,1 15,6 15,7 17,3 18,7 14,8 4 2 16 8 ZZW 1018,3 10 0 1,0
24.05.2018 02:00:00 16,1 15,5 15,7 17,6 18,9 14,8 7 4 13 7 WZW 1018,0 4,0 0 0,3
24.05.2018 01:00:00 16,1 14,6 15,0 18,2 19,1 14,8 7 4 11 6 ZW 1017,9 24 0 0,0
24.05.2018 00:00:00 17,6 15,9 16,4 18,9 19,4 14,8 5 3 12 7 W 1017,7 10 0 0,0
23.05.2018 23:00:00 18,0 16,7 16,9 19,6 19,5 14,8 5 3 10 6 W 1017,2 11 0 0,1
23.05.2018 22:00:00 19,0 17,6 18,0 20,4 19,6 14,8 6 4 10 5 Z 1016,9 11 0 0,1
23.05.2018 21:00:00 19,7 17,3 18,4 21,4 19,6 14,8 4 2 8 4 N 1016,7 13 0 0,4
23.05.2018 20:00:00 21,3 14,8 21,0 22,4 19,5 14,8 6 4 15 8 NO 1016,2 44 45 0,0
23.05.2018 19:00:00 21,7 15,6 21,8 23,6 19,3 14,8 11 6 19 10 NNO 1015,7 10 60 0,0
23.05.2018 18:00:00 22,1 15,5 23,4 23,9 19,1 14,8 10 5 15 8 N 1015,9 27 49 0,0
23.05.2018 17:00:00 20,9 14,1 21,4 22,6 18,9 14,8 3 2 11 6 WZW 1016,2 48 0 0,0
23.05.2018 16:00:00 19,6 14,6 20,4 22,5 18,6 14,8 9 5 22 12 N 1016,4 48 0 0,0
23.05.2018 15:00:00 20,9 14,8 21,7 23,1 18,2 14,8 3 2 15 8 WNW 1016,7 31 0 0,0
23.05.2018 14:00:00 20,5 15,0 21,5 25,7 17,5 14,8 12 7 18 10 NNO 1017,0 26 42 0,0
23.05.2018 13:00:00 19,4 14,8 21,4 23,7 16,9 14,7 9 5 16 8 NNO 1017,5 28 10 0,0
23.05.2018 12:00:00 19,5 13,4 21,7 22,2 16,4 14,7 4 2 9 5 - 1017,6 10 14 0,0
23.05.2018 11:00:00 19,0 14,2 19,5 19,6 16,1 14,7 3 2 9 5 ZZO 1017,5 29 0 0,0
23.05.2018 10:00:00 17,4 13,7 18,0 17,8 16,0 14,7 7 4 10 5 Z 1017,4 26 0 0,0
23.05.2018 09:00:00 16,1 13,6 16,2 15,6 16,0 14,7 3 2 5 3 Z 1017,2 25 0 0,0
23.05.2018 08:00:00 14,5 13,6 14,0 14,4 16,1 14,7 2 1 5 3 NNO 1017,0 19 0 0,0
23.05.2018 07:00:00 12,8 12,7 12,7 13,4 16,4 14,7 5 3 7 4 NO 1016,3 12 0 0,0
23.05.2018 06:00:00 12,0 11,9 9,7 13,3 16,6 14,7 3 1 4 2 ONO 1015,9 6 0 0,0
23.05.2018 05:00:00 12,5 12,2 10,7 13,8 16,9 14,7 4 2 7 4 ZO 1015,5 10 0 0,0
23.05.2018 04:00:00 13,3 12,7 11,0 14,4 17,2 14,7 3 1 5 3 WNW 1015,3 16 0 0,0
23.05.2018 03:00:00 14,2 12,9 12,2 14,9 17,4 14,7 4 2 11 6 ZO 1015,0 37 0 0,0
23.05.2018 02:00:00 14,7 13,7 13,9 15,4 17,7 14,7 9 5 19 10 Z 1015,1 18 0 0,0
23.05.2018 01:00:00 14,4 13,8 13,8 15,8 17,9 14,6 7 4 11 6 ZW 1014,7 19 0 0,0
23.05.2018 00:00:00 14,5 13,5 13,9 16,1 18,2 14,6 4 2 10 5 NO 1014,5 29 0 0,0
22.05.2018 23:00:00 14,9 13,4 13,4 16,3 18,6 14,6 5 3 13 7 O 1014,2 40 0 0,0
22.05.2018 22:00:00 15,3 14,0 13,5 17,1 18,9 14,6 4 2 9 5 O 1013,3 30 0 0,0
22.05.2018 21:00:00 16,4 13,8 15,0 18,0 19,2 14,6 4 2 12 7 ZW 1012,8 52 0 0,0
22.05.2018 20:00:00 16,9 13,4 16,3 18,9 19,5 14,6 11 6 18 10 ZO 1011,9 55 0 0,0
22.05.2018 19:00:00 17,6 14,0 16,1 19,3 19,9 14,6 10 5 32 18 W 1011,8 44 0 1,1
22.05.2018 18:00:00 16,1 14,9 15,6 19,6 20,3 14,6 22 12 29 16 NO 1012,0 3,4 0 2,8
22.05.2018 17:00:00 14,5 13,7 14,5 21,5 20,3 14,6 9 5 32 18 OZO 1012,8 4,2 0 20,1
22.05.2018 16:00:00 20,1 14,6 20,4 27,4 19,8 14,6 18 10 31 17 ZO 1011,4 32 13 0,0
22.05.2018 15:00:00 24,9 11,7 29,2 31,1 19,0 14,6 6 3 19 10 N 1010,9 27 60 0,0
22.05.2018 14:00:00 23,8 13,2 27,6 29,9 18,2 14,6 9 5 14 8 N 1010,9 30 60 0,0
22.05.2018 13:00:00 23,4 13,7 28,9 28,4 17,4 14,6 7 4 13 7 N 1011,2 26 60 0,0
22.05.2018 12:00:00 21,6 14,2 26,8 26,0 16,7 14,6 6 3 14 8 NW 1011,8 25 60 0,0

tt = temperatuur
td = dauwpunt
tt 5cm = temperatuur 5cm
tt -5cm = temperatuur -5cm
tt -20cm = temperatuur -20cm
tt -100cm = temperatuur -100cm
ff = windsnelheid
fx = windstoten
dd = windrichting
ppp = luchtdruk
vv = zicht
sd = Zonneschijnduur
rr = neerslag

Weerstations in de omgeving